Vorticity
nan nan nan nan nan nan nan nan nan nan nan nan nan nan nan nan nan nan nan nan nan nan nan nan nan nan nan nan nan nan nan nan nan nan nan nan nan nan nan nan nan nan nan nan nan nan nan nan nan nan nan nan nan nan nan nan nan nan nan nan nan nan nan nan nan nan nan nan nan
nan 14 14 13 12 11 11 11 10 10 9 9 10 10 10 10 10 10 10 9 8 8 8 10 9 8 9 10 11 12 13 13 13 13 15 18 20 21 21 19 17 17 18 21 21 19 17 13 10 8 8 9 10 8 8 10 10 9 9 5 4 8 10 11 11 11 11 8 nan
nan 11 12 13 12 11 11 11 11 10 10 10 10 10 10 10 10 10 10 9 7 7 8 8 9 10 10 11 11 12 14 16 17 14 13 12 14 14 13 10 9 11 11 12 10 10 10 10 8 8 7 9 9 8 9 10 9 8 9 5 3 7 9 12 13 11 11 12 nan
nan 8 9 9 10 11 11 11 11 12 12 13 12 12 12 11 11 10 9 9 10 9 8 6 8 10 12 12 11 11 12 16 17 14 9 5 7 8 8 7 8 8 8 7 4 5 7 7 7 9 10 11 9 7 8 12 11 8 9 8 8 10 10 11 12 11 11 13 nan
nan 8 8 7 8 10 11 10 9 11 13 13 13 13 13 13 12 11 11 11 11 9 7 5 6 7 9 10 13 15 16 16 14 11 9 7 7 9 10 8 8 9 10 9 9 9 8 5 6 10 11 11 9 11 14 15 10 8 7 9 11 11 11 11 10 11 11 12 nan
nan 9 9 8 8 10 10 8 8 10 11 10 9 9 10 11 10 9 9 10 11 10 10 10 8 7 7 8 12 16 17 14 12 11 11 11 10 10 11 12 12 11 12 13 14 13 10 5 6 10 11 11 12 14 16 12 8 8 8 9 10 11 12 12 10 11 11 11 nan
nan 9 9 9 10 10 9 9 9 10 10 9 8 8 8 8 7 7 8 10 12 13 15 16 13 12 11 10 9 9 9 9 10 11 12 14 13 13 13 14 14 13 13 13 13 11 9 6 7 9 11 10 12 14 12 9 9 10 9 8 8 10 12 11 10 11 14 13 nan
nan 9 9 9 10 9 9 10 10 10 10 8 7 7 8 9 9 10 12 12 12 12 13 14 16 17 17 14 10 8 8 10 11 12 12 14 13 12 12 13 12 11 11 11 11 10 8 7 8 9 9 10 12 13 13 11 10 10 10 7 7 9 10 10 11 13 15 14 nan
nan 8 9 10 9 9 9 10 10 10 9 8 7 8 10 11 12 13 14 14 12 11 11 10 15 20 20 17 15 15 15 14 15 15 15 14 13 13 12 11 10 8 8 9 10 9 7 6 8 9 9 10 13 14 15 13 10 9 7 6 8 9 10 12 14 14 15 14 nan
nan 9 10 10 8 9 10 11 12 12 11 10 10 12 13 14 14 15 15 13 11 11 10 11 14 17 18 17 17 18 18 16 16 15 14 13 13 14 13 12 11 9 9 9 10 9 7 7 8 10 11 12 14 15 15 13 11 8 6 8 13 13 11 12 13 13 13 13 nan
nan 10 11 10 9 11 12 14 14 14 14 13 13 14 15 14 15 15 14 13 12 12 13 16 16 17 17 16 16 16 15 15 14 12 11 11 11 11 12 13 13 12 11 10 9 9 9 9 10 11 11 13 13 13 14 13 12 10 9 13 15 14 12 11 11 11 11 13 nan
nan 11 11 10 11 13 14 16 15 14 13 13 14 14 14 12 12 15 16 16 17 17 17 18 20 20 19 16 14 14 13 13 13 12 11 10 10 11 11 12 13 13 13 12 11 12 12 13 14 13 12 12 12 13 14 14 13 12 12 14 14 13 13 12 10 10 12 13 nan
nan 12 12 12 13 15 16 16 15 12 11 11 13 13 11 8 9 14 17 20 22 20 17 17 18 19 18 16 14 13 12 12 11 11 11 11 11 12 12 12 12 12 13 13 15 17 17 16 16 15 14 13 14 14 14 13 13 13 13 13 13 13 14 12 11 12 13 13 nan
nan 12 12 13 15 16 15 15 14 10 8 10 12 12 11 9 9 12 15 18 19 18 16 15 14 14 14 15 14 13 13 12 12 12 13 13 13 13 12 12 12 12 12 13 14 17 18 17 15 15 14 13 14 14 14 14 14 14 14 13 13 13 14 13 12 12 12 12 nan
nan 12 12 14 15 16 14 14 13 8 7 9 12 12 13 10 9 11 13 13 14 15 15 14 12 11 11 12 14 13 13 13 13 13 13 13 13 13 12 12 11 11 12 12 11 12 13 14 14 13 13 12 12 13 13 14 15 15 15 14 13 13 13 12 11 11 11 11 nan
nan 11 12 13 15 16 15 15 13 8 8 10 11 13 14 12 10 10 11 13 13 13 12 13 12 10 8 9 10 11 10 10 11 11 12 12 12 12 12 11 10 11 11 11 10 10 10 11 12 12 12 11 11 11 12 12 13 13 14 14 14 13 12 12 11 10 11 11 nan
nan 10 11 12 13 14 15 16 14 11 10 10 12 13 13 13 12 10 11 14 15 13 12 12 12 11 9 8 8 8 9 9 9 9 10 10 11 11 11 11 11 10 10 10 9 10 10 11 12 11 11 11 10 10 10 10 10 11 12 12 13 12 11 11 10 10 10 11 nan
nan 9 10 10 11 11 12 14 14 12 10 11 12 12 13 13 14 13 11 13 15 14 13 13 13 12 12 11 11 10 10 10 10 10 10 10 10 10 10 10 11 10 10 9 10 10 10 11 11 11 10 10 10 10 10 9 9 10 10 11 11 11 10 10 9 9 9 9 nan
nan 9 9 10 10 10 10 11 12 11 10 10 12 12 12 13 14 14 13 12 13 13 13 13 13 12 12 13 13 13 12 11 11 11 11 10 10 10 10 10 11 11 10 10 10 10 10 10 10 10 10 10 10 10 10 9 9 9 9 9 10 10 10 9 9 9 9 8 nan
nan 9 9 10 10 10 10 10 11 11 12 10 10 11 11 12 13 13 13 12 13 13 14 13 13 12 12 12 12 13 13 11 10 11 11 11 11 11 10 10 10 11 10 10 11 10 10 10 10 10 10 10 10 9 9 8 9 9 9 8 9 10 10 10 10 11 11 10 nan
nan 9 9 10 10 10 10 10 11 11 11 11 10 10 11 10 11 11 11 12 12 13 13 12 13 12 12 11 11 11 12 11 10 10 10 10 11 10 10 10 11 11 11 11 11 11 10 10 10 10 9 9 9 8 8 8 8 9 8 9 10 10 10 11 12 13 12 12 nan
nan 9 9 9 10 11 11 11 10 10 10 10 10 10 10 10 10 10 11 11 11 11 11 10 10 11 12 12 11 11 12 12 11 11 11 11 10 10 11 11 11 11 11 10 10 9 9 9 9 9 9 8 8 9 9 9 8 8 8 10 10 10 10 11 12 12 12 10 nan
nan 10 9 8 9 10 10 10 10 10 10 10 10 10 10 10 10 10 11 12 11 11 10 9 8 9 11 12 12 12 13 13 12 12 12 11 10 10 10 10 9 9 9 8 7 8 7 7 7 8 8 9 9 9 9 9 9 8 8 8 8 8 9 10 10 10 10 9 nan
nan 12 12 9 8 10 10 10 10 10 10 10 10 10 10 10 10 10 10 11 11 11 12 11 9 8 9 11 12 12 13 13 11 11 10 10 9 9 9 9 8 8 9 10 13 14 13 10 8 7 7 8 8 8 9 9 10 9 9 7 6 6 7 8 9 9 9 9 nan
nan 12 13 12 10 11 11 11 11 11 10 10 10 10 9 9 9 9 9 9 10 10 11 12 11 10 9 10 11 11 11 10 10 9 9 9 10 10 10 10 9 9 11 15 18 19 18 18 15 12 10 8 8 8 8 9 10 10 10 8 7 6 6 6 7 7 8 8 nan
nan 11 11 11 11 11 11 11 11 10 11 10 10 10 10 9 9 9 9 9 9 9 9 9 10 10 10 10 10 10 10 8 8 9 9 9 10 11 12 12 11 11 13 17 16 15 16 18 19 18 15 11 9 8 8 7 8 9 9 9 8 8 7 6 6 7 8 8 nan
nan 10 11 11 10 10 10 10 10 10 10 11 11 11 11 11 11 9 9 9 9 8 8 8 8 8 8 8 9 10 11 10 9 10 10 11 11 12 12 12 12 14 16 17 14 12 12 13 14 17 17 15 11 9 9 8 7 6 7 8 9 9 10 8 7 7 8 8 nan
nan 11 11 11 10 10 10 10 10 10 10 11 11 11 11 11 11 11 10 10 10 9 8 7 7 8 8 8 8 10 12 13 11 10 10 12 12 12 12 13 14 17 18 16 13 12 12 11 11 13 15 16 11 8 7 8 6 6 6 7 8 9 9 9 8 8 8 8 nan
nan 11 11 11 11 10 10 10 11 10 10 10 10 11 11 11 11 11 11 11 11 11 11 10 10 11 12 11 10 9 9 10 11 11 11 11 11 11 12 14 14 14 14 14 13 12 11 10 10 10 12 16 15 11 7 7 8 8 8 8 9 9 10 10 11 10 9 7 nan
nan 11 11 11 11 10 10 11 11 11 11 10 10 11 11 11 11 11 11 11 12 13 14 15 15 15 14 13 11 10 10 10 11 11 11 10 10 11 12 13 13 12 11 12 12 11 11 10 10 9 10 14 16 14 11 10 10 10 10 10 10 10 11 10 11 11 10 9 nan
nan 11 10 10 10 10 10 11 11 11 12 12 11 11 11 10 10 11 11 11 12 13 15 16 16 15 14 13 13 12 12 11 11 11 10 9 10 10 11 11 13 13 11 11 11 11 11 11 10 9 9 11 13 13 12 12 12 12 11 11 10 10 10 8 8 8 9 9 nan
nan 11 10 10 9 9 9 10 10 11 11 11 11 10 10 10 10 10 11 11 11 12 12 12 12 11 11 11 12 11 11 11 12 12 12 11 10 10 10 9 10 12 12 11 11 11 11 11 10 9 9 9 10 11 12 12 10 10 10 10 9 10 11 10 8 6 7 8 nan
nan 10 10 10 9 9 9 9 10 10 10 10 10 10 10 10 10 10 10 11 10 10 10 9 9 9 9 9 9 10 10 10 11 11 12 11 11 10 10 8 7 8 11 11 11 11 11 10 9 8 7 7 7 9 11 12 10 9 8 8 8 8 9 10 9 7 6 7 nan
nan 10 10 10 10 10 10 10 10 10 10 10 10 10 11 10 10 10 11 11 11 10 9 9 9 9 9 10 11 11 10 9 8 8 9 9 10 10 11 11 10 9 11 11 10 10 10 9 7 6 4 4 6 8 10 12 12 11 10 9 8 8 7 8 8 8 8 8 nan
nan 11 10 10 10 10 11 11 11 11 11 10 10 10 10 10 10 10 11 12 12 12 11 11 11 12 12 12 11 10 10 10 9 8 8 9 9 9 10 13 14 12 11 10 9 9 8 7 6 5 3 3 6 8 8 8 10 10 10 9 9 9 9 8 8 9 10 10 nan
nan 11 11 11 11 11 11 11 11 10 10 10 9 9 9 9 9 9 10 10 10 11 11 12 13 13 13 11 9 8 8 9 9 8 8 8 8 8 8 10 10 9 8 8 8 8 7 6 5 4 3 4 7 8 7 6 7 8 8 8 9 9 9 9 9 10 10 10 nan
nan 12 11 11 11 11 11 10 10 10 10 9 9 9 9 9 9 9 9 9 9 9 10 10 11 11 11 10 9 9 9 9 8 7 7 7 8 8 8 8 7 6 6 7 8 7 7 6 5 4 4 6 8 8 8 7 8 8 8 8 8 9 8 8 7 8 8 8 nan
nan 12 12 11 11 11 11 11 10 10 10 10 10 10 9 9 9 9 10 10 9 9 9 9 9 9 9 10 10 10 10 9 8 7 7 7 8 8 8 7 7 6 6 7 7 7 7 6 4 4 5 6 8 7 7 8 9 9 8 8 8 8 8 8 7 6 6 7 nan
nan 13 13 12 11 10 10 10 9 9 9 9 9 9 10 10 10 10 10 11 10 10 9 9 9 9 9 10 10 9 9 10 9 8 8 8 9 9 8 7 7 7 7 7 7 7 6 5 4 4 4 6 6 7 7 8 9 9 8 8 7 7 7 8 8 7 6 5 nan
nan 12 11 10 9 8 8 7 8 8 8 8 8 8 9 10 10 10 10 10 10 9 8 8 9 9 9 7 8 8 10 10 10 10 10 11 10 8 7 7 7 8 7 6 6 6 6 5 4 4 5 6 7 8 9 9 9 9 9 8 8 7 7 8 8 8 7 6 nan
nan nan nan nan nan nan nan nan nan nan nan nan nan nan nan nan nan nan nan nan nan nan nan nan nan nan nan nan nan nan nan nan nan nan nan nan nan nan nan nan nan nan nan nan nan nan nan nan nan nan nan nan nan nan nan nan nan nan nan nan nan nan nan nan nan nan nan nan nan
CAPE
nan nan nan nan nan nan nan nan nan nan nan 31 247 428 428 449 444 444 444 497 469 442 442 464 481 502 502 613 729 729 758 828 934 810 810 962 1060 1037 1037 1204 513 328 328 204 89 89 nan nan nan nan nan nan nan nan nan nan nan nan nan nan nan nan nan nan nan nan nan nan nan
nan nan nan nan nan nan nan nan nan nan nan nan 7 104 104 280 380 433 433 516 516 488 488 429 451 498 498 548 602 602 806 969 1059 1058 1058 981 828 854 854 142 26 18 18 9 nan nan nan nan nan nan nan nan nan nan nan nan nan nan nan nan nan nan nan nan nan nan nan nan nan
nan nan nan nan nan nan nan nan nan nan nan nan nan 9 9 78 236 390 390 473 529 528 528 471 415 463 463 537 593 593 857 1045 1067 977 977 688 525 563 563 104 37 9 9 nan nan nan nan nan nan nan nan nan nan nan nan nan nan nan nan nan nan nan nan nan nan nan nan nan nan
nan nan nan nan nan nan nan nan nan nan nan nan nan 0 0 23 158 349 349 485 541 540 540 512 457 428 428 476 589 589 853 868 886 735 735 556 385 492 492 184 61 26 26 2 nan nan nan nan nan nan nan nan nan nan nan nan nan nan nan nan nan nan nan nan nan nan nan nan 0
nan nan nan nan nan nan nan nan nan nan nan nan nan nan nan 12 102 265 265 473 613 611 611 610 554 474 474 450 541 541 739 741 421 571 571 459 255 272 272 173 84 26 26 0 nan nan nan nan nan nan nan nan nan nan nan nan nan nan nan nan nan nan nan nan nan nan nan nan nan
nan nan nan nan nan nan nan nan nan nan nan nan nan nan nan nan 18 93 93 245 412 609 609 577 519 468 468 640 709 709 739 632 375 356 356 296 151 91 91 95 67 5 5 nan nan nan nan nan nan nan 1 1 0 0 0 nan nan nan nan nan nan nan nan nan nan nan nan nan nan
nan nan nan nan nan nan nan nan nan nan nan nan nan nan nan nan 3 26 26 68 219 361 361 357 438 579 579 754 797 797 688 451 279 205 205 154 55 23 23 23 10 nan nan nan nan nan 0 0 nan nan 0 1 0 1 1 0 nan nan nan nan nan nan nan nan nan nan nan nan nan
nan nan nan nan nan nan nan nan nan nan nan nan nan nan nan nan 0 9 9 32 115 190 190 329 548 689 689 786 715 715 648 427 261 151 151 38 5 nan nan nan nan nan nan nan 0 0 nan nan 0 0 0 nan 0 1 1 0 0 nan nan 0 nan nan nan nan nan nan nan nan nan
nan nan nan nan nan nan nan nan nan nan nan nan nan nan nan 0 3 8 8 20 41 96 96 357 578 711 711 716 655 655 546 386 240 106 106 3 nan nan nan nan nan nan nan 0 0 0 0 0 1 1 1 0 nan 0 0 0 0 0 0 0 0 nan nan nan nan nan nan nan nan
nan nan nan nan nan nan nan nan nan nan nan nan nan nan nan 0 12 20 20 24 37 83 83 256 537 611 611 561 476 476 306 183 142 56 56 nan nan nan nan nan nan nan nan 0 0 0 0 1 1 1 0 0 0 0 0 0 0 0 0 nan nan nan nan nan nan nan 0 nan nan
nan nan nan nan nan nan nan nan nan nan nan nan nan 2 2 4 24 35 35 63 87 213 213 226 414 464 464 334 268 268 146 34 6 0 0 nan nan 0 0 nan nan nan nan 0 1 1 1 1 1 1 0 1 nan nan nan nan nan nan nan 0 0 0 0 0 nan nan 0 nan nan
nan nan nan nan nan nan nan nan nan nan nan nan 0 3 3 13 27 55 55 157 191 280 280 233 271 228 228 144 35 35 nan nan nan nan nan nan nan nan nan nan 0 0 0 0 1 1 1 1 1 1 0 0 0 nan nan nan nan nan nan 0 nan 0 0 0 0 0 0 0 nan
nan nan nan nan nan nan nan nan nan nan nan nan nan nan nan 1 2 8 8 41 106 123 123 50 48 11 11 nan nan nan nan nan nan nan nan nan nan nan nan nan nan 0 0 1 2 2 1 1 1 1 1 1 1 0 0 nan nan nan nan 0 0 0 0 0 0 0 0 0 nan
nan nan nan nan nan nan nan nan nan nan nan nan nan nan nan nan nan nan nan nan 1 nan nan nan nan nan nan nan nan nan nan nan nan nan nan nan nan nan nan nan nan nan nan 1 1 1 1 1 0 0 2 1 2 2 2 1 0 1 1 0 0 0 0 1 1 1 0 0 0
nan nan nan nan nan nan nan nan nan nan nan nan nan nan nan nan nan nan nan nan nan nan nan nan nan nan nan nan nan nan nan nan nan nan nan nan nan nan nan nan nan nan nan 0 0 0 nan 0 0 0 1 2 2 2 2 2 2 2 2 2 2 2 2 2 2 2 0 0 1
nan nan nan nan nan nan nan nan nan nan nan nan nan nan nan nan nan nan nan nan nan nan nan nan nan nan nan nan nan nan nan nan nan nan nan nan nan nan nan nan nan nan nan nan nan nan nan nan 0 0 0 2 2 2 2 2 2 2 2 3 3 2 2 2 2 2 1 1 0
nan nan nan nan nan nan nan nan nan nan nan nan nan nan nan nan nan nan nan nan nan nan nan nan nan nan nan nan nan nan nan nan nan nan nan nan nan nan nan nan nan nan nan nan nan nan nan nan nan nan 0 0 1 1 1 1 0 1 1 2 2 2 2 3 1 1 2 1 1
nan nan nan nan nan nan nan nan nan nan nan nan nan nan nan nan nan nan nan nan nan nan nan nan nan nan nan nan nan nan nan nan nan nan nan nan nan nan nan nan nan nan nan nan nan nan nan nan nan nan nan 0 0 0 0 0 1 1 1 2 2 3 3 3 2 2 1 3 3
nan nan nan nan nan nan nan nan nan nan nan nan nan nan nan nan nan nan nan nan nan nan nan nan nan nan nan nan nan nan nan nan nan nan nan nan nan nan nan nan nan nan nan nan nan nan nan nan nan nan 0 0 1 1 1 1 1 1 1 2 2 4 4 3 3 3 3 3 3
nan nan nan nan nan nan nan nan nan nan nan nan nan nan nan nan nan nan nan nan nan nan nan nan nan nan nan nan nan nan nan nan nan nan nan nan nan nan nan nan nan nan nan nan nan nan 0 0 nan nan 1 1 1 1 1 2 3 3 3 4 4 6 6 6 4 4 2 1 1
nan nan nan nan nan nan nan nan nan nan nan nan nan nan nan nan nan nan nan nan nan nan nan nan nan nan nan nan nan nan nan nan nan nan nan nan nan nan nan nan nan nan nan nan nan nan 0 0 nan nan nan 0 0 0 0 1 1 4 4 5 5 6 6 3 2 2 2 0 nan
nan nan nan nan nan nan nan nan nan nan nan nan nan nan nan nan nan nan nan nan 0 1 1 1 1 0 0 0 0 0 0 0 nan 0 0 0 0 0 0 1 3 3 3 3 2 2 1 0 0 0 0 1 1 1 1 1 2 2 2 2 2 1 1 1 1 1 0 0 0
nan nan nan nan nan nan nan nan nan nan nan nan nan nan nan nan nan nan nan nan nan 0 0 1 1 0 0 0 nan nan 0 1 2 2 2 3 3 3 3 3 4 3 3 2 3 3 4 2 0 0 1 1 3 1 1 1 1 1 1 2 1 0 0 1 1 1 1 0 0
nan nan nan nan nan nan nan nan nan nan nan nan nan nan nan nan nan nan nan nan nan nan nan 0 0 0 0 nan 0 0 0 1 5 4 4 5 5 5 5 4 3 3 3 3 5 5 5 3 2 2 2 2 2 1 1 1 2 2 2 2 2 1 1 0 0 0 0 1 1
nan nan nan nan nan nan nan nan nan nan nan nan nan nan nan nan nan nan nan nan nan 0 0 1 1 1 1 1 1 1 3 4 4 3 3 5 5 5 5 3 2 3 3 6 10 10 10 10 6 6 4 3 1 2 2 1 1 1 1 1 1 1 1 1 0 0 0 0 0
nan nan nan nan nan nan nan nan nan nan nan nan nan nan nan nan nan nan nan 0 0 1 1 3 2 2 2 3 5 5 5 4 6 5 5 5 4 2 2 3 2 5 5 11 16 16 15 14 13 13 7 4 3 2 2 1 0 1 1 1 1 1 1 1 0 0 0 0 0
0 0 0 nan nan nan nan nan nan nan 0 0 0 0 0 0 0 0 0 0 1 1 1 2 2 4 4 5 7 7 7 5 6 6 6 5 4 4 4 5 4 5 5 17 20 20 19 17 15 15 9 4 4 3 3 2 1 1 1 1 1 0 0 0 0 0 0 0 0
2 3 3 1 0 0 0 0 0 0 1 1 1 1 1 1 1 1 1 1 1 2 2 2 3 5 5 5 6 6 8 5 3 4 4 5 4 5 5 8 8 13 13 21 23 23 22 23 20 20 15 7 3 2 2 2 2 2 2 1 0 0 0 0 0 0 0 0 nan
5 6 6 2 0 0 1 1 2 2 1 2 1 0 0 1 1 1 1 1 2 4 4 4 5 5 5 4 4 4 5 4 3 4 4 4 6 10 10 13 15 22 22 27 26 26 25 23 21 21 16 10 3 2 2 1 1 1 1 0 0 0 0 0 0 0 nan nan nan
7 7 7 5 2 2 1 2 2 2 2 2 1 1 1 2 3 3 3 3 4 5 5 5 6 7 7 6 5 5 5 5 4 5 5 7 10 13 13 18 21 23 23 29 27 27 23 18 17 17 14 9 2 0 0 0 nan 0 0 nan nan nan nan nan nan nan nan nan nan
10 8 8 7 5 5 3 2 1 1 1 1 2 4 4 5 4 5 5 6 7 7 7 7 7 9 9 8 9 9 10 9 7 8 8 10 16 16 16 17 21 26 26 29 27 27 22 18 13 13 10 6 1 nan nan nan nan nan nan nan nan nan nan nan nan nan nan nan nan
11 9 9 8 7 7 4 2 1 1 1 1 3 9 9 8 6 7 7 8 7 8 8 7 10 10 10 9 9 9 13 14 12 8 8 7 5 6 6 10 14 21 21 27 24 24 18 14 11 11 8 5 1 nan nan nan nan nan nan 0 nan nan nan 0 0 0 0 nan nan
11 10 10 8 9 9 8 6 4 4 3 5 6 10 10 10 10 11 11 12 10 9 9 9 11 12 12 13 16 16 12 7 4 4 4 5 4 5 5 8 12 18 18 22 21 21 16 13 10 10 7 5 0 nan nan nan nan nan nan nan 0 0 0 0 0 0 0 1 0
12 10 10 7 8 8 9 10 9 9 7 9 11 12 12 11 10 11 11 11 11 12 12 11 14 17 17 18 12 12 8 7 5 4 4 3 3 7 7 7 9 18 18 19 17 17 14 13 10 10 7 5 nan nan nan nan nan 0 0 0 0 0 0 0 0 0 0 nan nan
11 9 9 8 10 10 11 9 10 10 9 10 12 11 11 10 9 8 8 7 7 7 7 7 11 13 13 13 9 9 8 6 4 3 3 3 4 5 5 6 7 17 17 17 17 17 14 12 9 9 7 4 nan nan nan nan 0 0 0 0 0 0 0 nan nan nan nan nan nan
11 10 10 10 9 9 10 9 10 10 10 11 12 9 9 7 8 6 6 5 3 2 2 3 6 8 8 8 5 5 7 4 5 5 5 4 3 3 3 4 6 15 15 15 13 13 12 9 7 7 5 2 nan nan nan nan nan nan nan nan nan nan nan nan nan nan nan nan nan
10 10 10 9 9 9 9 10 10 10 9 9 10 9 9 9 6 3 3 3 3 2 2 1 2 3 3 5 3 3 6 4 3 5 5 4 2 2 2 3 4 9 9 9 7 7 6 6 4 4 2 0 nan nan nan nan nan nan nan nan nan nan nan nan nan nan nan nan nan
11 9 9 8 8 8 8 9 8 8 9 8 7 8 8 7 4 3 3 2 1 1 1 1 1 1 1 1 1 1 2 4 4 2 2 3 2 1 1 2 3 5 5 4 3 3 3 3 1 1 0 nan nan nan nan nan nan nan nan nan nan nan nan nan nan nan nan nan nan
10 10 10 9 8 8 8 8 7 7 6 6 7 8 8 7 5 3 3 2 1 1 1 1 1 0 0 0 nan nan nan 2 3 1 1 1 1 0 0 1 2 2 2 2 1 1 1 1 0 0 nan nan nan nan nan nan nan nan nan nan nan nan nan nan nan nan nan nan nan
7 8 8 6 6 6 7 6 5 5 4 5 5 5 5 6 5 4 4 2 2 2 2 1 1 1 1 2 1 1 nan 1 1 1 1 0 1 1 1 1 2 1 1 1 1 1 1 0 nan nan nan nan nan nan nan nan nan nan nan nan nan nan nan nan nan nan nan nan nan
5 4 4 2 3 3 4 3 2 2 3 4 3 5 5 6 5 3 3 2 2 2 2 2 2 2 2 1 1 1 1 2 3 2 2 1 1 2 2 1 2 2 2 2 2 2 0 nan nan nan nan nan nan nan nan nan nan nan nan nan nan nan nan nan nan nan nan nan nan